Terminal Aerodrome Forecast
Issued by NWS

Home | Current Version | Previous Version | Text Only | Print | Product List | Glossary On
Versions: 1 2 3 4 5 6 7 8 9 10 11 12 13 14 15 16 17 18
000
FTUS43 KLSX 091607 AAB
TAFUIN
TAF AMD
KUIN 091607Z 0916/1012 30005KT P6SM OVC020
     FM091800 29007KT P6SM SCT025 BKN040
     FM092100 VRB04KT P6SM SCT100
     FM101000 17006KT P6SM BKN080=

USA.gov is the U.S. government's official web portal to all federal, state and local government web resources and services.